Flag for Germany

Past Weather in Schwerin, Mecklenburg-Western Pomerania, Germany — Yesterday and Last 2 Weeks

Now
45 °F

Fog.


Feels Like: 45 °F
Forecast: 56 / 51 °F
Wind: 2 mph from North

Location: Laage
Current Time: Sep 26, 2020 at 5:39:01 am
Latest Report: Sep 26, 2020 at 4:20 am
Visibility: N/A
Pressure29.42 "Hg
Humidity: 93%
Dew Point: 43 °F
Location of SchwerinLocation

Past Weather in Schwerin — Graph

°F

Schwerin Temperature Yesterday

Maximum temperature yesterday: 57 °F (at 12:49 pm)
Minimum temperature yesterday: 48 °F (at 11:20 pm)
Average temperature yesterday: 54 °F

High & Low Weather Summary for the Past Weeks

 TemperatureHumidityPressure
High84 °F (Sep 15, 2:20 pm)100% (Sep 12, 12:20 am)30.45 "Hg (Sep 12, 12:20 am)
Low37 °F (Sep 18, 6:43 am)33% (Sep 20, 4:20 pm)29.39 "Hg (Sep 25, 10:58 am)
Average59 °F74%30.02 "Hg
* Reported Sep 11 3:20 am — Sep 26 3:20 am, Schwerin. Weather by CustomWeather, © 2020

Note: Actual official high and low records may vary slightly from our data, if they occured in-between our weather recording intervals... More about our weather records

Schwerin Weather History for the Previous 24 Hours

Scroll right to see more
 ConditionsComfort  
Time TempWeatherWind HumidityBarometerVisibility
3:20 am
Sat, Sep 26
45 °FFog.2 mph100%29.42 "HgN/A
2:20 am43 °FFog.2 mph100%29.45 "HgN/A
1:20 am45 °FFog.2 mph93%29.42 "HgN/A
12:20 am46 °FFog.3 mph93%29.42 "HgN/A
11:20 pm
Fri, Sep 25
48 °FPassing clouds.2 mph87%29.42 "HgN/A
10:20 pm50 °FPassing clouds.6 mph94%29.42 "HgN/A
9:20 pm50 °FFog.2 mph94%29.42 "HgN/A
8:20 pm50 °FFog.No wind94%29.42 "HgN/A
7:20 pm52 °FFog.2 mph94%29.42 "HgN/A
6:20 pm55 °FScattered clouds.5 mph82%29.39 "HgN/A
5:20 pm57 °FBroken clouds.7 mph82%29.39 "HgN/A
4:20 pm57 °FPartly sunny.6 mph88%29.39 "HgN/A
4:03 pm57 °FPartly sunny.6 mph88%29.39 "HgN/A
3:15 pm57 °FPartly sunny.10 mph88%29.39 "HgN/A
2:20 pm57 °FDrizzle. Broken clouds.7 mph94%29.39 "Hg4 mi
1:20 pm57 °FPartly sunny.2 mph94%29.39 "HgN/A
12:49 pm57 °FPartly sunny.2 mph94%29.39 "HgN/A
12:20 pm55 °FBroken clouds.2 mph100%29.39 "HgN/A
11:56 am55 °FBroken clouds.2 mph100%29.39 "Hg5 mi
11:20 am55 °FDrizzle. Fog.2 mph94%29.42 "Hg3 mi
11:11 am55 °FDrizzle. Fog.2 mph94%29.42 "Hg2 mi
10:58 am54 °FDrizzle. Fog.2 mph100%29.39 "Hg2 mi
10:30 am54 °FDrizzle. Fog.3 mph94%29.42 "Hg1 mi
9:56 am54 °FDrizzle. Fog.1 mph94%29.42 "Hg2 mi
9:20 am54 °FDrizzle. Mostly cloudy.2 mph94%29.42 "Hg4 mi
8:20 am52 °FDrizzle. Fog.6 mph100%29.45 "Hg2 mi
7:20 am52 °FDrizzle. Fog.3 mph94%29.45 "Hg2 mi
6:41 am52 °FRain. Fog.2 mph94%29.47 "Hg2 mi
6:29 am52 °FRain. Passing clouds.3 mph94%29.47 "Hg4 mi
5:20 am52 °FLight rain. Passing clouds.2 mph88%29.50 "HgN/A
Weather by CustomWeather, © 2020

See weather overview